This demonstration page uses our WeatherBlox Daily Observations layout. Learn more.

Left ArrowRight Arrow

34.74481, -87.66753

Hourly Observations for October 12, 2021

Temp ( °F °C ) Dew Point ( °F °C ) Humidity (%) Winds ( mph kmh ) Pressure ( in mb ) Visibility ( mi km ) Precip ( " mm )
12:53 am 00:53 Cloudy 75 23.9 65 18.3 71 71 WNW 6 9 29.92 1013 10 16 0.00 0.00
1:53 am 01:53 Cloudy 75 23.9 66 18.9 74 74 SW 3 6 29.93 1014 10 16 0.00 0.00
2:53 am 02:53 Mostly Cloudy 73 22.8 66 18.9 79 79 Calm 29.95 1014 10 16 0.00 0.00
3:53 am 03:53 Cloudy 73 22.8 67 19.4 81 81 Calm 29.95 1014 10 16 0.01 0.25
4:25 am 04:25 Cloudy with Light Rain 73 22.8 67 19.4 81 81 SSW 5 7 29.96 1015 10 16 0.00 0.00
4:53 am 04:53 Cloudy 72 22.2 67 19.4 84 84 SSW 6 9 29.96 1015 10 16 0.00 0.00
5:05 am 05:05 Mostly Cloudy 72 22.2 66 18.9 82 82 S 5 7 29.97 1015 10 16 0.00 0.00
5:53 am 05:53 Partly Cloudy 70 21.1 66 18.9 87 87 Calm 29.98 1015 10 16 0.00 0.00
6:36 am 06:36 Mostly Cloudy 70 21.1 66 18.9 87 87 SSE 3 6 30.00 1016 10 16 0.00 0.00
6:53 am 06:53 Cloudy 71 21.7 67 19.4 87 87 Calm 30.00 1016 10 16 0.00 0.00
7:53 am 07:53 Cloudy 72 22.2 67 19.4 84 84 Calm 30.02 1017 10 16 0.00 0.00
8:05 am 08:05 Cloudy 72 22.2 67 19.4 84 84 Calm 30.02 1017 10 16 0.00 0.00
8:53 am 08:53 Cloudy 73 22.8 68 20 84 84 SSE 3 6 30.03 1017 10 16 0.00 0.00
9:35 am 09:35 Cloudy 75 23.9 69 20.6 82 82 S 5 7 30.03 1017 10 16 0.00 0.00
9:44 am 09:44 Cloudy 75 23.9 68 20 79 79 S 5 7 30.03 1017 10 16 0.00 0.00
9:53 am 09:53 Cloudy 75 23.9 68 20 79 79 VRB 3 6 30.04 1017 10 16 0.00 0.00
10:20 am 10:20 Mostly Cloudy 76 24.4 69 20.6 79 79 Calm 30.03 1017 10 16 0.00 0.00
10:53 am 10:53 Cloudy 79 26.1 69 20.6 72 72 NW 5 7 30.03 1017 10 16 0.00 0.00
11:03 am 11:03 Cloudy 78 25.6 69 20.6 74 74 N 6 9 30.03 1017 10 16 0.00 0.00
11:53 am 11:53 Mostly Cloudy 81 27.2 68 20 65 65 SW 3 6 30.02 1017 10 16 0.00 0.00
12:53 pm 12:53 Partly Cloudy 84 28.9 68 20 59 59 SW 9 15 30.00 1016 10 16 0.00 0.00
1:53 pm 13:53 Partly Cloudy 85 29.4 68 20 57 57 W 7 11 29.98 1015 10 16 0.00 0.00
2:53 pm 14:53 Mostly Sunny 86 30 67 19.4 53 53 W 7 11 29.97 1015 10 16 0.00 0.00
3:53 pm 15:53 Sunny 86 30 66 18.9 51 51 W 7 11 29.96 1015 10 16 0.00 0.00
4:53 pm 16:53 Mostly Sunny 85 29.4 66 18.9 53 53 W 7 11 29.98 1015 10 16 0.00 0.00
5:53 pm 17:53 Partly Cloudy 82 27.8 67 19.4 60 60 WNW 5 7 29.98 1015 10 16 0.00 0.00
6:53 pm 18:53 Clear 75 23.9 67 19.4 76 76 Calm 29.98 1015 10 16 0.00 0.00
7:53 pm 19:53 Clear 72 22.2 66 18.9 82 82 Calm 29.99 1016 10 16 0.00 0.00
8:53 pm 20:53 Clear 71 21.7 66 18.9 84 84 Calm 29.99 1016 10 16 0.00 0.00
9:53 pm 21:53 Clear 71 21.7 66 18.9 84 84 Calm 30.01 1016 10 16 0.00 0.00
10:53 pm 22:53 Mostly Cloudy 70 21.1 66 18.9 87 87 ESE 3 6 30.02 1017 8 13 0.00 0.00
11:53 pm 23:53 Mostly Clear 71 21.7 66 18.9 84 84 ESE 3 6 30.00 1016 8 13 0.00 0.00

Powered by AerisWeather